This demonstration page uses our WeatherBlox Daily Observations layout. Learn more.

Left ArrowRight Arrow

Hourly Observations for January 6, 2022

Temp ( °F °C ) Dew Point ( °F °C ) Humidity (%) Winds ( mph kmh ) Pressure ( in mb ) Visibility ( mi km ) Precip ( " mm )
12:53 am 00:53 Mostly Clear 39 3.9 26 -3.3 60 60 NNW 3 6 29.90 1012 10 16 0.00 0.00
1:53 am 01:53 Mostly Clear 36 2.2 26 -3.3 67 67 NW 6 9 29.89 1012 10 16 0.00 0.00
2:53 am 02:53 Mostly Clear 34 1.1 26 -3.3 73 73 NNW 6 9 29.91 1013 10 16 0.00 0.00
3:53 am 03:53 Mostly Clear 33 0.6 26 -3.3 75 75 NNW 8 13 29.91 1013 10 16 0.00 0.00
4:53 am 04:53 Mostly Clear 34 1.1 26 -3.3 73 73 NNW 12 19 29.94 1014 10 16 0.00 0.00
5:53 am 05:53 Partly Cloudy 33 0.6 25 -3.9 72 72 NNW 10 17 29.99 1016 10 16 0.00 0.00
6:53 am 06:53 Mostly Clear 32 0 22 -5.6 66 66 NNW 10 17 30.03 1017 10 16 0.00 0.00
7:53 am 07:53 Mostly Cloudy 32 0 20 -6.7 61 61 N 13 20 30.07 1018 10 16 0.00 0.00
8:53 am 08:53 Mostly Cloudy 31 -0.6 16 -8.9 54 54 N 20 31 30.14 1021 10 16 0.00 0.00
9:53 am 09:53 Mostly Cloudy 32 0 15 -9.4 50 50 N 20 31 30.18 1022 10 16 0.00 0.00
10:53 am 10:53 Mostly Cloudy 33 0.6 15 -9.4 47 47 N 17 28 30.20 1023 10 16 0.00 0.00
11:53 am 11:53 Mostly Sunny 34 1.1 16 -8.9 48 48 N 13 20 30.22 1024 10 16 0.00 0.00
12:53 pm 12:53 Mostly Cloudy 37 2.8 17 -8.3 44 44 N 16 26 30.20 1023 10 16 0.00 0.00
1:53 pm 13:53 Mostly Cloudy 38 3.3 17 -8.3 43 43 N 17 28 30.20 1023 10 16 0.00 0.00
2:53 pm 14:53 Partly Cloudy 39 3.9 17 -8.3 41 41 NNW 17 28 30.19 1022 10 16 0.00 0.00
3:53 pm 15:53 Mostly Cloudy 37 2.8 16 -8.9 42 42 NNW 14 22 30.21 1023 10 16 0.00 0.00
4:53 pm 16:53 Mostly Cloudy 35 1.7 16 -8.9 46 46 N 13 20 30.22 1024 10 16 0.00 0.00
5:53 pm 17:53 Mostly Cloudy 34 1.1 16 -8.9 48 48 N 10 17 30.23 1024 10 16 0.00 0.00
6:53 pm 18:53 Mostly Cloudy 33 0.6 16 -8.9 49 49 N 9 15 30.25 1024 10 16 0.00 0.00
7:53 pm 19:53 Partly Cloudy 31 -0.6 16 -8.9 54 54 N 9 15 30.25 1024 10 16 0.00 0.00
8:53 pm 20:53 Partly Cloudy 30 -1.1 17 -8.3 58 58 N 10 17 30.27 1025 10 16 0.00 0.00
9:53 pm 21:53 Mostly Clear 29 -1.7 16 -8.9 58 58 N 7 11 30.28 1025 10 16 0.00 0.00
10:53 pm 22:53 Mostly Clear 28 -2.2 15 -9.4 58 58 N 9 15 30.29 1026 10 16 0.00 0.00
11:53 pm 23:53 Mostly Clear 28 -2.2 15 -9.4 58 58 NNE 8 13 30.29 1026 10 16 0.00 0.00

Powered by AerisWeather